Regional Weather Roundup
Issued by NWS Grand Forks, ND

Home | Current Version | Previous Version | Text Only | Print | Product List | Glossary On
Versions: 1 2 3 4 5 6 7 8 9 10 11 12 13 14 15 16 17 18 19 20 21 22 23 24 25 26 27 28 29 30 31 32 33 34 35 36 37 38 39 40 41 42 43 44 45 46 47 48 49 50
000
ASUS43 KFGF 170531
RWRFGF
PRAIRIE TO PINES  WEATHER ROUNDUP
NATIONAL WEATHER SERVICE EASTERN NORTH DAKOTA/GRAND FORKS ND
1100 PM CST MON JAN 16 2017

 **SATELLITE DATA USED TO AUGMENT SKY COVER AT AUTOMATED STATIONS**
 *****  WEATHER ACROSS EASTERN NORTH DAKOTA  *****

CITY           SKY/WX    TMP DP  RH WIND       PRES   REMARKS
GRAND FORKS    FAIR       4  -1  80 SW6       30.02S WCI  -7
GRAND FRKS AFB FAIR       4  -1  81 W6        30.02S WCI  -7
DEVILS LAKE    FAIR       5   3  91 W8        29.99F WCI  -8
FARGO          FAIR       6   4  91 SW5       30.03S WCI  -3
WAHPETON ARPT  FAIR       5   1  85 CALM      30.04S
$$

 ***** WEATHER ACROSS CENTRAL AND WESTERN NORTH DAKOTA  *****

CITY           SKY/WX    TMP DP  RH WIND       PRES   REMARKS
BISMARCK       FAIR       9   6  88 NW8       30.07F WCI  -3
MINOT          FAIR      18  13  80 SW16      30.00F WCI   3
JAMESTOWN      FAIR      11   9  92 W6        30.00F WCI   1
MINOT AFB      FAIR      15  11  82 W10       29.99F WCI   3
GARRISON         N/A     16  11  80 CALM      30.04F
WILLISTON      FAIR       9   7  92 SW3       30.03F
DICKINSON      FAIR      12   8  84 W5        30.02S WCI   4
HETTINGER      FAIR      11   7  84 NW9       30.07R WCI  -2
$$

 *****  OTHER AIRPORT OBSERVATIONS IN OUR AREA  *****

CITY           SKY/WX    TMP DP  RH WIND       PRES   REMARKS
WALHALLA       NOT AVBL
GRAFTON AIRPOR FAIR       1  -2  85 SW6       30.03F WCI -10
VALLEY CITY AR FAIR       9   9 100 NW7       30.02F WCI  -3
CANDO          NOT AVBL
CAVALIER APRT    N/A      1   0  92 S3        29.99F
GWINNER        FAIR      10   9  92 W10       30.02S WCI  -3
SHEYENNE NWR     N/A      7   2  82 NW6       29.95S WCI  -3
ROLLA            N/A    N/A N/A N/A MISG        N/A
 ***** THE ABOVE OBSERVATIONS ARE NON NWS ARE NOT QUALITY
       CONTROLLED AND MAY MIS-REPORT RAIN FOR SNOW...
$$

  *****  WEATHER ACROSS NORTHERN MINNESOTA  *****

CITY           SKY/WX    TMP DP  RH WIND       PRES   REMARKS
FLAG ISLAND    FAIR       3   1  92 NW3       29.98F
WARROAD        FAIR       1  -2  85 CALM      29.98F
ROSEAU         FAIR       3  -2  78 CALM      30.00R
HALLOCK        FAIR       5   1  85 SE6       30.00F WCI  -6
THF RVR FALLS  FAIR       3   0  85 CALM      30.01S FOG
BAUDETTE       FAIR       1  -3  83 S3        29.97F
WASKISH        FAIR       3   0  85 CALM      29.99S
CROOKSTON      FAIR       5   1  85 S3        30.03S
STEPHEN NDAWN    N/A      5   1  85 SW2         N/A
GREENBUSH NDAW   N/A      0  -2  92 CALM        N/A
$$
  *****  WEATHER ACROSS CENTRAL AND WEST MINNESOTA  *****

CITY           SKY/WX    TMP DP  RH WIND       PRES   REMARKS
FOSSTON        FAIR       1  -2  85 S3        29.99F
BEMIDJI        FAIR       5   2  90 NW5       29.97F WCI  -4
PARK RAPIDS    MOCLDY     1  -4  79 NW6       29.97S HAZE    WCI -10
ELBOW LAKE     FAIR       8   6  93 CALM      30.02R FOG
WADENA         FAIR       5   3  92 CALM      29.99S FOG
DETROIT LAKES  FAIR      12  10  92 CALM      30.00S FOG
MOORHEAD       FAIR       7   3  85 CALM      30.03S
FERGUS FALLS   FAIR      10   9  92 CALM      30.06F
MORRIS MN      FAIR       9   7  92 NW5       30.01S FOG     WCI   0
STAPLES        MOCLDY     5   1  85 CALM      29.99F FOG
$$
  *****  WEATHER ELSEWHERE ACROSS MINNESOTA  *****

CITY           SKY/WX    TMP DP  RH WIND       PRES   REMARKS
DULUTH         FAIR      20  15  81 CALM      29.98S
INTRNTL FALLS  FAIR       6   0  76 CALM      29.98F
ELY            FAIR       9   7  92 CALM      29.99S
CLOQUET        FAIR      18  14  86 NW3       29.98S
WHEATON        FAIR      12  10  92 W5        30.05S WCI   4
BRAINERD       FAIR      12  10  92 CALM      29.99F FOG
HIBBING        FAIR       5   4  95 CALM      29.99S FOG
ALEXANDRIA     FAIR      14  12  92 CALM      29.99S FOG
SAINT CLOUD    CLOUDY    23  20  88 N3        29.99F FOG
MINNEAPOLIS    FRZ RAIN  30  26  85 N8        29.97S FOG     WCI  22
$$

  *****  WEATHER ACROSS SOUTH DAKOTA  *****

CITY           SKY/WX    TMP DP  RH WIND       PRES   REMARKS
SIOUX FALLS    CLOUDY    29  27  92 NW5       29.98S WCI  24
BROOKINGS      LGT SNOW  18  16  93 NW6       29.98S VSB 3/4 WCI   9
WATERTOWN      FOG        5   2  87 CALM      29.98S VSB 1/4
HURON          FAIR       5   2  87 NW3       30.06R
SISSETON         N/A      7   4  87 CALM      30.02S
ABERDEEN       FAIR       2  -2  83 CALM      30.05S
MITCHELL       FAIR      11   8  88 NW7       30.06S WCI   0
PIERRE         FAIR      11   8  88 W7        30.07S WCI   0
MOBRIDGE       FAIR      14   8  77 N8        30.03F WCI   3
RAPID CITY     FAIR      16   8  71 CALM      30.06F
$$

  *****  SOME WEATHER IN NEARBY STATES *****

CITY           SKY/WX    TMP DP  RH WIND       PRES   REMARKS
GLASGOW MT     FAIR      10   6  84 SE12      29.94F WCI  -5
GREAT FALLS MT FAIR      31  18  58 SW23      29.92F WCI  18
CHEYENNE WY    FAIR      18  11  74 NW6       30.07F WCI  10
SCOTTSBLUFF NE FAIR      23  16  74 NW7       30.10S WCI  15
OMAHA NE       CLOUDY    33  29  85 NW14      29.96F WCI  23
DES MOINES IA  FOG       33  33 100 NW7       29.88S VSB 1/4
DAVENPORT IA   FOG       34  34 100 N5        29.82F VSB 1/2
CHICAGO IL     DRIZZLE   37  36  96 NE6       29.85F FOG
EAU CLAIRE WI  FRZ RAIN  32  32 100 NE6       29.93F FOG
LA CROSSE WI   LGT RAIN  36  33  89 NW3       29.91F FOG
$$

  *****  SOME NATIONAL WEATHER *****

CITY           SKY/WX    TMP DP  RH WIND       PRES   REMARKS
LA GUARDIA NY  CLOUDY    42  25  50 SW10      30.28F
RALEIGH NC     MOCLDY    48  41  76 S5        30.31F
ATLANTA GA     FAIR      58  55  90 E9        30.24F
NEW ORLEANS LA MOCLDY    68  66  93 SE9       30.13R
OKLAHOMA CITY  MOCLDY    38  33  82 W10       30.08R
ALBUQUERQUE NM LGT RAIN  41  39  93 E8        30.10R
SALT LAKE CITY CLOUDY    23  17  78 NW5       30.30S WCI  17
LOS ANGELES CA FAIR      55  52  89 SE6       30.06R
BOISE ID       FAIR       3   0  87 NW3       30.41F FOG
SEATTLE WA     CLOUDY    45  30  55 S6        29.97F
$$

*** WEATHER ACROSS MANITOBA...SASKATCHEWAN AND ONTARIO ***
                ***ONTARIO***

CITY           SKY/WX    TMP DP  RH WIND       PRES   REMARKS
GERALDTON      FOG       16  14  93 E3        30.08F VSB 3/4
THUNDER BAY    CLOUDY    21  18  86 W2        30.06S
SIOUX LOOKOUT  CLEAR      3   1  92 SE6       29.98  WCI  -8
TORONTO        CLOUDY    34  21  60 S2        30.20F
BIG TROUT LK   FLURRIES  21  19  93 SW14      29.94F WCI   8
PICKLE LAKE    NOT AVBL
DRYDEN         CLEAR     18  14  86 S6        29.96F WCI   9
KENORA         CLEAR     14  10  85 S5        29.96F WCI   6
$$
                *** MANITOBA***

CITY           SKY/WX    TMP DP  RH WIND       PRES   REMARKS
BRANDON        CLEAR      7   5  92 W7        29.97F WCI  -5
DAUPHIN        CLEAR     27  21  80 W13       29.90F WCI  16
ISLAND LAKE    PTCLDY    21  19  93 S8        29.84F WCI  12
PILOT MOUND      N/A     12  10  92 W7          N/A  WCI   2
THE PAS        MOCLDY    32  21  64 S9        29.66F WCI  24
THOMPSON       MOCLDY    27  23  86 S10G18    29.56F WCI  17
WINNIPEG       CLEAR      7   3  85 S10       29.98F WCI  -8
LYNN LAKE      PTCLDY    28  27  93 SW14G22   29.40F WCI  17
CHURCHILL      CRYSTALS  16  14  93 S16G24    29.45F WCI   0
GILLAM         CLOUDY    23  21  93 S17       29.62F WCI   9
$$
                ***SASKATCHEWAN***

CITY           SKY/WX    TMP DP  RH WIND       PRES   REMARKS
ESTEVAN        PTCLDY    14   9  79 SW13      29.97F WCI   0
KINDERSLEY     MOCLDY    21  16  79 S14       29.64F WCI   8
LLOYDMINSTER   PTCLDY    25  16  68 S14       29.50F WCI  13
PRINCE ALBERT  MOCLDY    23  16  74 SW7       29.67F WCI  15
REGINA         PTCLDY    12   9  85 SE12      29.87F WCI  -2
YORKTON        CLEAR     23  18  80 SW14G21   29.85F WCI  11
N. BATTLEFORD  CLEAR     21  14  73 SE9       29.63F WCI  11
LA RONGE       PTCLDY    32  18  55 S6        29.50F
SASKATOON      CLEAR     25  18  74 S15       29.71F WCI  12
SWIFT CURRENT  CLEAR     25  18  74 SW24G32   29.73F WCI   9
$$
NOTE: THESE ARE AUTOMATED STATIONS WITH LIMITED QUALITY CONTROL
      "FAIR" INDICATES FEW OR NO CLOUDS BELOW 12,000 FEET WITH NO
      SIGNIFICANT WEATHER AND/OR OBSTRUCTIONS TO VISIBILITY.
      SKY/WX - SKY CONDITION AND SIGNIFICANT WEATHER.
      TMP - AIR TEMPERATURE.    DP   - DEWPOINT TEMPERATURE.
      RH  - RELATIVE HUMIDITY.  PRES - PRESSURE.
      HX  - HEAT INDEX.         WCI  - WIND CHILL INDEX.
$



USA.gov is the U.S. government's official web portal to all federal, state and local government web resources and services.